Portada
METAR-TAF:

METAR-TAF

Aeroports :

Abumusa, Iran

latitud: 25-52-33N, longitud: 055-02-01E, altitud: 7 m

Observació

L'informe es va fer fa 5 hores i 3 minuts, a les 15:00 UTC
Vent 10 kt del Oest
Temperatura 27°C
Humitat 74%
Pressió 1012 hPa
Visibilitat: 8000 m

METAR: OIBA 041500Z 28010KT 8000 NSC 27/22 Q1012

Hora: 23:33 (20:03 UTC)


TAF: manca

Observacions i pronòstics meteorològics de més de 4000 aeroports (METAR i TAF).

Les estacions disponibles són els punts grocs i vermells al mapa.

Posi el ratolí al punt desitjat per veure el nom de l'estació.

Feu clic per veure les observacions i els pronòstics meteorològics.

Per canviar el mapa: feu clic els botons verds amb una creu de color negre per apropar; al botó verd amb un guió per allunyar la imatge; o en les fletxes verdes per a mapes adjacents.


METAR-TAF: